Time,TemperatureF,DewpointF,PressureIn,WindDirection,WindDirectionDegrees,WindSpeedMPH,WindSpeedGustMPH,Humidity,HourlyPrecipIn,Conditions,Clouds,dailyrainin,SolarRadiationWatts/m^2,SoftwareType,DateUTC
2013-01-13 00:01:00,17.6,11.0,29.93,NW,320,6.0,12.0,75,0.00,,,0.00,0,Wunderground v.1.15,2013-01-13 06:01:00,
2013-01-13 00:11:00,17.4,10.8,29.93,NW,325,3.0,3.0,75,0.00,,,0.00,0,Wunderground v.1.15,2013-01-13 06:11:00,
2013-01-13 00:21:00,17.4,10.8,29.95,NW,307,4.0,4.0,75,0.00,,,0.00,0,Wunderground v.1.15,2013-01-13 06:21:00,
2013-01-13 00:31:00,17.4,10.5,29.92,NW,319,5.0,5.0,74,0.00,,,0.00,0,Wunderground v.1.15,2013-01-13 06:31:00,
2013-01-13 00:41:00,17.0,9.8,29.93,NNW,329,5.0,5.0,73,0.00,,,0.00,0,Wunderground v.1.15,2013-01-13 06:41:00,
2013-01-13 00:51:00,16.6,9.4,29.93,NW,326,12.0,12.0,73,0.00,,,0.00,0,Wunderground v.1.15,2013-01-13 06:51:00,
2013-01-13 01:01:00,16.2,9.1,29.92,NNW,330,10.0,12.0,73,0.00,,,0.00,0,Wunderground v.1.15,2013-01-13 07:01:00,
2013-01-13 01:06:00,16.0,8.9,29.93,NW,304,10.0,12.0,73,0.00,,,0.00,0,Wunderground v.1.15,2013-01-13 07:06:00,
2013-01-13 01:16:00,16.2,9.4,29.92,NW,313,4.0,4.0,74,0.00,,,0.00,0,Wunderground v.1.15,2013-01-13 07:16:00,
2013-01-13 01:26:00,16.0,8.9,29.92,NNW,342,13.0,13.0,73,0.00,,,0.00,0,Wunderground v.1.15,2013-01-13 07:26:00,
2013-01-13 01:36:00,15.3,8.2,29.93,NW,319,6.0,6.0,73,0.00,,,0.00,0,Wunderground v.1.15,2013-01-13 07:36:00,
2013-01-13 01:46:00,14.6,8.1,29.90,NNW,347,9.0,9.0,75,0.00,,,0.00,0,Wunderground v.1.15,2013-01-13 07:46:00,
2013-01-13 01:51:00,14.5,8.3,29.90,NNW,332,8.0,8.0,76,0.00,,,0.00,0,Wunderground v.1.15,2013-01-13 07:51:00,
2013-01-13 02:01:00,14.2,8.3,29.92,NW,323,2.0,15.0,77,0.00,,,0.00,0,Wunderground v.1.15,2013-01-13 08:01:00,
2013-01-13 02:06:00,14.0,7.8,29.92,NW,314,9.0,15.0,76,0.00,,,0.00,0,Wunderground v.1.15,2013-01-13 08:06:00,
2013-01-13 02:16:00,13.7,7.5,29.93,NNW,338,9.0,9.0,76,0.00,,,0.00,0,Wunderground v.1.15,2013-01-13 08:16:00,
2013-01-13 02:21:00,13.5,7.3,29.92,NNW,335,10.0,10.0,76,0.00,,,0.00,0,Wunderground v.1.15,2013-01-13 08:21:00,
2013-01-13 02:26:00,13.5,7.3,29.92,NNW,340,4.0,10.0,76,0.00,,,0.00,0,Wunderground v.1.15,2013-01-13 08:26:00,
2013-01-13 02:36:00,13.3,7.1,29.94,NW,315,7.0,7.0,76,0.00,,,0.00,0,Wunderground v.1.15,2013-01-13 08:36:00,
2013-01-13 02:46:00,13.2,7.0,29.92,NNW,331,9.0,9.0,76,0.00,,,0.00,0,Wunderground v.1.15,2013-01-13 08:46:00,
2013-01-13 02:51:00,13.0,6.9,29.92,NNW,333,8.0,8.0,76,0.00,,,0.00,0,Wunderground v.1.15,2013-01-13 08:51:00,
2013-01-13 03:01:00,12.6,6.5,29.92,NNW,330,8.0,9.0,76,0.00,,,0.00,0,Wunderground v.1.15,2013-01-13 09:01:00,
2013-01-13 03:06:00,12.4,6.3,29.92,NNW,333,7.0,9.0,76,0.00,,,0.00,0,Wunderground v.1.15,2013-01-13 09:06:00,
2013-01-13 03:16:00,12.1,5.7,29.92,NNW,328,10.0,10.0,75,0.00,,,0.00,0,Wunderground v.1.15,2013-01-13 09:16:00,
2013-01-13 03:26:00,11.9,5.5,29.93,NW,317,6.0,6.0,75,0.00,,,0.00,0,Wunderground v.1.15,2013-01-13 09:26:00,
2013-01-13 03:36:00,11.7,5.3,29.93,NNW,339,6.0,6.0,75,0.00,,,0.00,0,Wunderground v.1.15,2013-01-13 09:36:00,
2013-01-13 03:46:00,11.5,5.1,29.93,NNW,338,9.0,9.0,75,0.00,,,0.00,0,Wunderground v.1.15,2013-01-13 09:46:00,
2013-01-13 03:51:00,11.4,4.7,29.93,NNW,333,2.0,2.0,74,0.00,,,0.00,0,Wunderground v.1.15,2013-01-13 09:51:00,
2013-01-13 04:01:00,11.1,4.4,29.93,NNW,330,8.0,14.0,74,0.00,,,0.00,0,Wunderground v.1.15,2013-01-13 10:01:00,
2013-01-13 04:06:00,11.0,4.3,29.92,NNW,346,3.0,14.0,74,0.00,,,0.00,0,Wunderground v.1.15,2013-01-13 10:06:00,
2013-01-13 04:16:00,10.9,4.5,29.93,NNW,331,6.0,6.0,75,0.00,,,0.00,0,Wunderground v.1.15,2013-01-13 10:16:00,
2013-01-13 04:21:00,10.8,4.4,29.92,NNW,334,4.0,4.0,75,0.00,,,0.00,0,Wunderground v.1.15,2013-01-13 10:21:00,
2013-01-13 04:31:00,10.6,4.2,29.92,NNW,329,6.0,6.0,75,0.00,,,0.00,0,Wunderground v.1.15,2013-01-13 10:31:00,
2013-01-13 04:41:00,10.3,3.9,29.92,NNW,329,5.0,5.0,75,0.00,,,0.00,0,Wunderground v.1.15,2013-01-13 10:41:00,
2013-01-13 04:46:00,10.3,3.9,29.92,NNW,338,3.0,5.0,75,0.00,,,0.00,0,Wunderground v.1.15,2013-01-13 10:46:00,
2013-01-13 04:56:00,10.1,4.0,29.91,NNW,332,4.0,4.0,76,0.00,,,0.00,0,Wunderground v.1.15,2013-01-13 10:56:00,
2013-01-13 05:06:00,9.9,3.8,29.92,NW,308,3.0,11.0,76,0.00,,,0.00,0,Wunderground v.1.15,2013-01-13 11:06:00,
2013-01-13 05:16:00,9.9,4.4,29.94,WNW,301,6.0,6.0,78,0.00,,,0.00,0,Wunderground v.1.15,2013-01-13 11:16:00,
2013-01-13 05:21:00,9.8,4.6,29.95,NW,307,2.0,2.0,79,0.00,,,0.00,0,Wunderground v.1.15,2013-01-13 11:21:00,
2013-01-13 05:31:00,9.7,4.2,29.95,NNW,327,3.0,3.0,78,0.00,,,0.00,0,Wunderground v.1.15,2013-01-13 11:31:00,
2013-01-13 05:41:00,9.7,4.2,29.95,NNW,335,3.0,3.0,78,0.00,,,0.00,0,Wunderground v.1.15,2013-01-13 11:41:00,
2013-01-13 05:51:00,9.6,4.4,29.95,NW,307,3.0,3.0,79,0.00,,,0.00,0,Wunderground v.1.15,2013-01-13 11:51:00,
2013-01-13 06:01:00,9.5,4.0,29.95,NW,316,3.0,3.0,78,0.00,,,0.00,0,Wunderground v.1.15,2013-01-13 12:01:00,
2013-01-13 06:11:00,9.4,3.9,29.97,NW,307,3.0,3.0,78,0.00,,,0.00,0,Wunderground v.1.15,2013-01-13 12:11:00,
2013-01-13 06:16:00,9.3,3.8,29.96,NW,322,3.0,3.0,78,0.00,,,0.00,0,Wunderground v.1.15,2013-01-13 12:16:00,
2013-01-13 06:26:00,9.3,4.1,29.97,NW,314,5.0,5.0,79,0.00,,,0.00,0,Wunderground v.1.15,2013-01-13 12:26:00,
2013-01-13 06:36:00,9.1,3.9,29.98,NW,312,5.0,5.0,79,0.00,,,0.00,0,Wunderground v.1.15,2013-01-13 12:36:00,
2013-01-13 06:46:00,9.1,3.9,29.98,NW,319,4.0,5.0,79,0.00,,,0.00,0,Wunderground v.1.15,2013-01-13 12:46:00,
2013-01-13 06:56:00,9.0,4.1,30.00,NW,320,3.0,3.0,80,0.00,,,0.00,0,Wunderground v.1.15,2013-01-13 12:56:00,
2013-01-13 07:06:00,9.0,4.1,29.98,NW,310,5.0,10.0,80,0.00,,,0.00,0,Wunderground v.1.15,2013-01-13 13:06:00,
2013-01-13 07:11:00,8.9,4.0,29.98,NW,324,5.0,5.0,80,0.00,,,0.00,0,Wunderground v.1.15,2013-01-13 13:11:00,
2013-01-13 07:21:00,8.9,4.3,29.99,NW,317,4.0,4.0,81,0.00,,,0.00,0,Wunderground v.1.15,2013-01-13 13:21:00,
2013-01-13 07:31:00,8.9,4.0,30.00,NW,312,5.0,5.0,80,0.00,,,0.00,0,Wunderground v.1.15,2013-01-13 13:31:00,
2013-01-13 07:41:00,8.9,3.7,29.99,NW,306,6.0,6.0,79,0.00,,,0.00,0,Wunderground v.1.15,2013-01-13 13:41:00,
2013-01-13 07:51:00,8.9,3.7,29.99,NW,312,2.0,2.0,79,0.00,,,0.00,0,Wunderground v.1.15,2013-01-13 13:51:00,
2013-01-13 08:01:00,9.1,3.9,30.00,NNW,332,7.0,8.0,79,0.00,,,0.00,0,Wunderground v.1.15,2013-01-13 14:01:00,
2013-01-13 08:06:00,9.5,4.0,30.01,NW,322,5.0,8.0,78,0.00,,,0.00,0,Wunderground v.1.15,2013-01-13 14:06:00,
2013-01-13 08:16:00,10.0,4.2,30.01,NNW,335,8.0,8.0,77,0.00,,,0.00,0,Wunderground v.1.15,2013-01-13 14:16:00,
2013-01-13 08:26:00,10.3,4.2,30.02,NNW,330,9.0,9.0,76,0.00,,,0.00,0,Wunderground v.1.15,2013-01-13 14:26:00,
2013-01-13 08:36:00,10.6,4.5,30.02,NW,311,4.0,4.0,76,0.00,,,0.00,0,Wunderground v.1.15,2013-01-13 14:36:00,
2013-01-13 08:46:00,11.0,4.9,30.02,NNW,340,3.0,8.0,76,0.00,,,0.00,0,Wunderground v.1.15,2013-01-13 14:46:00,
2013-01-13 08:56:00,11.2,5.1,30.02,NNW,333,6.0,6.0,76,0.00,,,0.00,0,Wunderground v.1.15,2013-01-13 14:56:00,
2013-01-13 09:06:00,11.3,5.2,30.02,North,354,6.0,9.0,76,0.00,,,0.00,0,Wunderground v.1.15,2013-01-13 15:06:00,
2013-01-13 09:16:00,11.3,4.9,30.02,NNW,334,9.0,9.0,75,0.00,,,0.00,0,Wunderground v.1.15,2013-01-13 15:16:00,
2013-01-13 09:21:00,11.3,4.9,30.02,North,355,5.0,5.0,75,0.00,,,0.00,0,Wunderground v.1.15,2013-01-13 15:21:00,
2013-01-13 09:31:00,11.3,4.9,30.01,WNW,303,6.0,6.0,75,0.00,,,0.00,0,Wunderground v.1.15,2013-01-13 15:31:00,
2013-01-13 09:41:00,12.0,5.9,30.01,NW,314,6.0,6.0,76,0.00,,,0.00,0,Wunderground v.1.15,2013-01-13 15:41:00,
2013-01-13 09:46:00,12.3,5.9,30.02,NW,322,8.0,8.0,75,0.00,,,0.00,0,Wunderground v.1.15,2013-01-13 15:46:00,
2013-01-13 09:56:00,12.8,5.8,30.01,NNW,333,5.0,7.0,73,0.00,,,0.00,0,Wunderground v.1.15,2013-01-13 15:56:00,
2013-01-13 10:06:00,13.0,6.0,30.01,NW,314,9.0,10.0,73,0.00,,,0.00,0,Wunderground v.1.15,2013-01-13 16:06:00,
2013-01-13 10:11:00,13.0,5.4,30.01,NW,305,7.0,7.0,71,0.00,,,0.00,0,Wunderground v.1.15,2013-01-13 16:11:00,
2013-01-13 10:21:00,13.2,5.2,30.00,NW,308,6.0,6.0,70,0.00,,,0.00,0,Wunderground v.1.15,2013-01-13 16:21:00,
2013-01-13 10:31:00,13.1,4.8,29.99,NW,305,9.0,9.0,69,0.00,,,0.00,0,Wunderground v.1.15,2013-01-13 16:31:00,
2013-01-13 10:41:00,12.7,4.8,30.00,NNW,336,5.0,5.0,70,0.00,,,0.00,0,Wunderground v.1.15,2013-01-13 16:41:00,
2013-01-13 10:46:00,12.7,4.8,30.00,NW,309,7.0,7.0,70,0.00,,,0.00,0,Wunderground v.1.15,2013-01-13 16:46:00,
2013-01-13 10:56:00,12.9,4.6,29.98,NNW,329,7.0,7.0,69,0.00,,,0.00,0,Wunderground v.1.15,2013-01-13 16:56:00,
2013-01-13 11:06:00,13.7,5.1,29.97,NNW,338,3.0,3.0,68,0.00,,,0.00,0,Wunderground v.1.15,2013-01-13 17:06:00,
2013-01-13 11:16:00,13.2,4.9,29.97,WNW,297,11.0,13.0,69,0.00,,,0.00,0,Wunderground v.1.15,2013-01-13 17:16:00,
2013-01-13 11:26:00,12.5,4.3,29.97,WNW,298,8.0,8.0,69,0.00,,,0.00,0,Wunderground v.1.15,2013-01-13 17:26:00,
2013-01-13 11:36:00,13.3,5.3,29.97,WNW,295,8.0,8.0,70,0.00,,,0.00,0,Wunderground v.1.15,2013-01-13 17:36:00,
2013-01-13 11:41:00,13.9,5.6,29.97,WNW,288,7.0,7.0,69,0.00,,,0.00,0,Wunderground v.1.15,2013-01-13 17:41:00,
2013-01-13 11:51:00,14.5,5.9,29.96,NNW,335,6.0,6.0,68,0.00,,,0.00,0,Wunderground v.1.15,2013-01-13 17:51:00,
2013-01-13 12:01:00,13.3,4.4,29.96,NW,311,4.0,4.0,67,0.00,,,0.00,0,Wunderground v.1.15,2013-01-13 18:01:00,
2013-01-13 12:11:00,13.5,5.2,29.96,NW,313,7.0,7.0,69,0.00,,,0.00,0,Wunderground v.1.15,2013-01-13 18:11:00,
2013-01-13 12:16:00,13.6,5.3,29.96,NW,319,6.0,7.0,69,0.00,,,0.00,0,Wunderground v.1.15,2013-01-13 18:16:00,
2013-01-13 12:26:00,14.7,5.7,29.96,NW,304,11.0,11.0,67,0.00,,,0.00,0,Wunderground v.1.15,2013-01-13 18:26:00,
2013-01-13 12:36:00,14.8,5.5,29.96,NNW,331,6.0,7.0,66,0.00,,,0.00,0,Wunderground v.1.15,2013-01-13 18:36:00,
2013-01-13 12:46:00,14.9,4.9,29.98,NW,326,4.0,7.0,64,0.00,,,0.00,0,Wunderground v.1.15,2013-01-13 18:46:00,
2013-01-13 12:56:00,14.8,5.8,29.98,WNW,301,10.0,10.0,67,0.00,,,0.00,0,Wunderground v.1.15,2013-01-13 18:56:00,
2013-01-13 13:06:00,14.8,5.5,29.97,WNW,296,11.0,11.0,66,0.00,,,0.00,0,Wunderground v.1.15,2013-01-13 19:06:00,
2013-01-13 13:11:00,14.9,5.6,29.98,West,280,4.0,4.0,66,0.00,,,0.00,0,Wunderground v.1.15,2013-01-13 19:11:00,
2013-01-13 13:21:00,15.2,5.5,29.97,NW,317,8.0,8.0,65,0.00,,,0.00,0,Wunderground v.1.15,2013-01-13 19:21:00,
2013-01-13 13:31:00,15.0,5.7,29.97,NW,326,5.0,5.0,66,0.00,,,0.00,0,Wunderground v.1.15,2013-01-13 19:31:00,
2013-01-13 13:41:00,14.8,5.5,29.98,NW,304,4.0,4.0,66,0.00,,,0.00,0,Wunderground v.1.15,2013-01-13 19:41:00,
2013-01-13 13:51:00,14.8,5.5,29.97,WNW,293,10.0,10.0,66,0.00,,,0.00,0,Wunderground v.1.15,2013-01-13 19:51:00,
2013-01-13 14:01:00,14.5,5.2,29.97,WNW,302,7.0,13.0,66,0.00,,,0.00,0,Wunderground v.1.15,2013-01-13 20:01:00,
2013-01-13 14:06:00,14.6,5.6,29.97,NW,314,7.0,13.0,67,0.00,,,0.00,0,Wunderground v.1.15,2013-01-13 20:06:00,
2013-01-13 14:16:00,14.7,5.7,29.97,NW,310,8.0,8.0,67,0.00,,,0.00,0,Wunderground v.1.15,2013-01-13 20:16:00,
2013-01-13 14:26:00,14.4,5.8,29.97,NW,304,7.0,11.0,68,0.00,,,0.00,0,Wunderground v.1.15,2013-01-13 20:26:00,
2013-01-13 14:36:00,13.8,5.2,29.97,NW,325,9.0,12.0,68,0.00,,,0.00,0,Wunderground v.1.15,2013-01-13 20:36:00,
2013-01-13 14:46:00,14.0,5.4,29.97,WNW,290,10.0,10.0,68,0.00,,,0.00,0,Wunderground v.1.15,2013-01-13 20:46:00,
2013-01-13 14:56:00,13.6,5.0,29.97,WNW,302,13.0,13.0,68,0.00,,,0.00,0,Wunderground v.1.15,2013-01-13 20:56:00,
2013-01-13 15:06:00,13.7,5.1,29.98,NW,323,11.0,12.0,68,0.00,,,0.00,0,Wunderground v.1.15,2013-01-13 21:06:00,
2013-01-13 15:16:00,13.5,5.5,29.99,WNW,300,12.0,13.0,70,0.00,,,0.00,0,Wunderground v.1.15,2013-01-13 21:16:00,
2013-01-13 15:21:00,13.5,5.2,29.99,NW,308,11.0,11.0,69,0.00,,,0.00,0,Wunderground v.1.15,2013-01-13 21:21:00,
2013-01-13 15:31:00,13.6,5.6,29.99,NW,317,7.0,7.0,70,0.00,,,0.00,0,Wunderground v.1.15,2013-01-13 21:31:00,
2013-01-13 15:41:00,13.7,6.0,29.99,WNW,302,10.0,10.0,71,0.00,,,0.00,0,Wunderground v.1.15,2013-01-13 21:41:00,
2013-01-13 15:46:00,13.3,5.3,29.99,WNW,291,13.0,13.0,70,0.00,,,0.00,0,Wunderground v.1.15,2013-01-13 21:46:00,
2013-01-13 15:56:00,13.3,5.0,30.00,WNW,303,9.0,9.0,69,0.00,,,0.00,0,Wunderground v.1.15,2013-01-13 21:56:00,
2013-01-13 16:06:00,13.3,5.0,30.01,NW,307,9.0,13.0,69,0.00,,,0.00,0,Wunderground v.1.15,2013-01-13 22:06:00,
2013-01-13 16:16:00,13.2,4.9,30.01,WNW,294,11.0,11.0,69,0.00,,,0.00,0,Wunderground v.1.15,2013-01-13 22:16:00,
2013-01-13 16:26:00,13.3,5.6,30.02,WNW,302,7.0,7.0,71,0.00,,,0.00,0,Wunderground v.1.15,2013-01-13 22:26:00,
2013-01-13 16:36:00,13.3,5.3,30.02,WNW,302,4.0,10.0,70,0.00,,,0.00,0,Wunderground v.1.15,2013-01-13 22:36:00,
2013-01-13 16:41:00,13.2,4.9,30.02,WNW,303,9.0,9.0,69,0.00,,,0.00,0,Wunderground v.1.15,2013-01-13 22:41:00,
2013-01-13 16:51:00,13.0,4.1,30.02,WNW,296,12.0,12.0,67,0.00,,,0.00,0,Wunderground v.1.15,2013-01-13 22:51:00,
2013-01-13 17:01:00,13.0,4.7,30.03,WNW,293,7.0,7.0,69,0.00,,,0.00,0,Wunderground v.1.15,2013-01-13 23:01:00,
2013-01-13 17:11:00,12.9,5.0,30.03,WNW,301,7.0,7.0,70,0.00,,,0.00,0,Wunderground v.1.15,2013-01-13 23:11:00,
2013-01-13 17:16:00,12.8,5.2,30.03,NW,307,11.0,11.0,71,0.00,,,0.00,0,Wunderground v.1.15,2013-01-13 23:16:00,
2013-01-13 17:26:00,12.7,5.1,30.03,WNW,299,9.0,9.0,71,0.00,,,0.00,0,Wunderground v.1.15,2013-01-13 23:26:00,
2013-01-13 17:36:00,12.7,5.1,30.04,WNW,302,9.0,9.0,71,0.00,,,0.00,0,Wunderground v.1.15,2013-01-13 23:36:00,
2013-01-13 17:46:00,12.7,4.4,30.04,WNW,297,11.0,11.0,69,0.00,,,0.00,0,Wunderground v.1.15,2013-01-13 23:46:00,
2013-01-13 17:51:00,12.7,4.8,30.05,WNW,291,14.0,14.0,70,0.00,,,0.00,0,Wunderground v.1.15,2013-01-13 23:51:00,
2013-01-13 17:56:00,12.7,4.4,30.05,WNW,293,12.0,14.0,69,0.00,,,0.00,0,Wunderground v.1.15,2013-01-13 23:56:00,
2013-01-13 18:06:00,12.6,4.0,30.06,WNW,296,15.0,16.0,68,0.00,,,0.00,0,Wunderground v.1.15,2013-01-14 00:06:00,
2013-01-13 18:16:00,12.5,3.6,30.06,WNW,293,13.0,13.0,67,0.00,,,0.00,0,Wunderground v.1.15,2013-01-14 00:16:00,
2013-01-13 18:21:00,12.4,3.5,30.06,WNW,300,14.0,14.0,67,0.00,,,0.00,0,Wunderground v.1.15,2013-01-14 00:21:00,
2013-01-13 18:31:00,12.2,3.3,30.06,WNW,290,11.0,11.0,67,0.00,,,0.00,0,Wunderground v.1.15,2013-01-14 00:31:00,
2013-01-13 18:41:00,12.1,3.2,30.06,WNW,298,8.0,8.0,67,0.00,,,0.00,0,Wunderground v.1.15,2013-01-14 00:41:00,
2013-01-13 18:46:00,12.2,3.6,30.07,NW,308,8.0,8.0,68,0.00,,,0.00,0,Wunderground v.1.15,2013-01-14 00:46:00,
2013-01-13 18:56:00,12.3,4.1,30.07,WNW,296,8.0,8.0,69,0.00,,,0.00,0,Wunderground v.1.15,2013-01-14 00:56:00,
2013-01-13 19:06:00,12.4,3.8,30.07,WNW,302,8.0,16.0,68,0.00,,,0.00,0,Wunderground v.1.15,2013-01-14 01:06:00,
2013-01-13 19:16:00,12.3,3.7,30.07,NW,312,12.0,12.0,68,0.00,,,0.00,0,Wunderground v.1.15,2013-01-14 01:16:00,
2013-01-13 19:26:00,12.2,4.0,30.07,WNW,295,8.0,10.0,69,0.00,,,0.00,0,Wunderground v.1.15,2013-01-14 01:26:00,
2013-01-13 19:36:00,12.2,4.3,30.07,WNW,291,10.0,10.0,70,0.00,,,0.00,0,Wunderground v.1.15,2013-01-14 01:36:00,
2013-01-13 19:41:00,12.2,4.3,30.07,WNW,301,11.0,11.0,70,0.00,,,0.00,0,Wunderground v.1.15,2013-01-14 01:41:00,
2013-01-13 19:51:00,12.2,4.6,30.07,WNW,303,11.0,11.0,71,0.00,,,0.00,0,Wunderground v.1.15,2013-01-14 01:51:00,
2013-01-13 20:01:00,12.1,4.8,30.08,WNW,303,8.0,16.0,72,0.00,,,0.00,0,Wunderground v.1.15,2013-01-14 02:01:00,
2013-01-13 20:11:00,12.2,4.9,30.08,NW,304,10.0,10.0,72,0.00,,,0.00,0,Wunderground v.1.15,2013-01-14 02:11:00,
2013-01-13 20:16:00,12.2,4.9,30.08,WNW,300,13.0,13.0,72,0.00,,,0.00,0,Wunderground v.1.15,2013-01-14 02:16:00,
2013-01-13 20:26:00,12.1,4.2,30.09,NW,305,7.0,7.0,70,0.00,,,0.00,0,Wunderground v.1.15,2013-01-14 02:26:00,
2013-01-13 20:36:00,11.7,3.5,30.10,NW,310,8.0,14.0,69,0.00,,,0.00,0,Wunderground v.1.15,2013-01-14 02:36:00,
2013-01-13 20:46:00,11.5,3.3,30.10,WNW,294,13.0,15.0,69,0.00,,,0.00,0,Wunderground v.1.15,2013-01-14 02:46:00,
2013-01-13 20:56:00,11.4,3.2,30.10,WNW,301,13.0,13.0,69,0.00,,,0.00,0,Wunderground v.1.15,2013-01-14 02:56:00,
2013-01-13 21:06:00,11.3,3.1,30.11,NW,312,8.0,13.0,69,0.00,,,0.00,0,Wunderground v.1.15,2013-01-14 03:06:00,
2013-01-13 21:11:00,11.2,3.3,30.12,NW,320,8.0,8.0,70,0.00,,,0.00,0,Wunderground v.1.15,2013-01-14 03:11:00,
2013-01-13 21:21:00,11.2,3.3,30.12,WNW,296,6.0,6.0,70,0.00,,,0.00,0,Wunderground v.1.15,2013-01-14 03:21:00,
2013-01-13 21:31:00,11.0,3.1,30.12,NW,311,9.0,9.0,70,0.00,,,0.00,0,Wunderground v.1.15,2013-01-14 03:31:00,
2013-01-13 21:41:00,11.1,3.2,30.13,WNW,301,4.0,4.0,70,0.00,,,0.00,0,Wunderground v.1.15,2013-01-14 03:41:00,
2013-01-13 21:51:00,10.9,3.0,30.13,NNW,330,9.0,9.0,70,0.00,,,0.00,0,Wunderground v.1.15,2013-01-14 03:51:00,
2013-01-13 22:01:00,10.9,3.0,30.13,NW,313,7.0,15.0,70,0.00,,,0.00,0,Wunderground v.1.15,2013-01-14 04:01:00,
2013-01-13 22:06:00,10.9,3.3,30.13,NW,318,8.0,15.0,71,0.00,,,0.00,0,Wunderground v.1.15,2013-01-14 04:06:00,
2013-01-13 22:16:00,10.9,3.6,30.14,NW,304,4.0,6.0,72,0.00,,,0.00,0,Wunderground v.1.15,2013-01-14 04:16:00,
2013-01-13 22:26:00,10.9,3.6,30.14,NW,324,7.0,10.0,72,0.00,,,0.00,0,Wunderground v.1.15,2013-01-14 04:26:00,
2013-01-13 22:36:00,10.8,3.8,30.14,NW,321,10.0,10.0,73,0.00,,,0.00,0,Wunderground v.1.15,2013-01-14 04:36:00,
2013-01-13 22:46:00,10.4,3.5,30.15,WNW,303,8.0,8.0,73,0.00,,,0.00,0,Wunderground v.1.15,2013-01-14 04:46:00,
2013-01-13 22:56:00,10.1,2.9,30.16,NW,322,11.0,11.0,72,0.00,,,0.00,0,Wunderground v.1.15,2013-01-14 04:56:00,
2013-01-13 23:06:00,9.6,2.7,30.16,NW,309,6.0,12.0,73,0.00,,,0.00,0,Wunderground v.1.15,2013-01-14 05:06:00,
2013-01-13 23:11:00,9.5,2.6,30.16,WNW,301,11.0,11.0,73,0.00,,,0.00,0,Wunderground v.1.15,2013-01-14 05:11:00,
2013-01-13 23:16:00,9.3,2.7,30.16,WNW,302,10.0,11.0,74,0.00,,,0.00,0,Wunderground v.1.15,2013-01-14 05:16:00,
2013-01-13 23:21:00,9.2,2.6,30.16,NNW,335,4.0,4.0,74,0.00,,,0.00,0,Wunderground v.1.15,2013-01-14 05:21:00,
2013-01-13 23:31:00,9.0,2.7,30.16,North,351,4.0,4.0,75,0.00,,,0.00,0,Wunderground v.1.15,2013-01-14 05:31:00,
2013-01-13 23:41:00,8.6,2.0,30.16,NNW,336,4.0,4.0,74,0.00,,,0.00,0,Wunderground v.1.15,2013-01-14 05:41:00,
2013-01-13 23:46:00,8.5,2.2,30.16,NW,318,6.0,6.0,75,0.00,,,0.00,0,Wunderground v.1.15,2013-01-14 05:46:00,
2013-01-13 23:56:00,8.2,2.2,30.16,NW,317,6.0,6.0,76,0.00,,,0.00,0,Wunderground v.1.15,2013-01-14 05:56:00,